Skip Page Navigation
NASA JPL Caltech
NASA Logo - Jet Propulsion Laboratory + View the NASA Portal
+ Near-Earth Object (NEO) Program
Search JPL
JPL Home Earth Solar System Stars & Galaxies Technology
JPL Solar System Dynamics
BODIES ORBITS EPHEMERIDES TOOLS PHYSICAL DATA DISCOVERY FAQ SITE MAP
JPL Small-Body Database Browser
Search: [ help ]  
10737 (1988 DZ4)
Classification: Mars-crossing Asteroid          SPK-ID: 2010737
Ephemeris | Orbit Diagram | Orbital Elements | Physical Parameters ]

[ show orbit diagram ]
Orbital Elements at Epoch 2456400.5 (2013-Apr-18.0) TDB
Reference: MPO236454 (heliocentric ecliptic J2000)
 Element Value Uncertainty (1-sigma)   Units 
e 0.1303814 n/a  
a 1.9044219 n/a AU
q 1.6561207 n/a AU
i 19.17024 n/a deg
node 176.25288 n/a deg
peri 104.67207 n/a deg
M 89.76109 n/a deg
tp 2456161.1525648
(2012-Aug-21.65256480)
n/a JED
period 959.9379496
2.63
n/a
n/a
d
yr
n 0.37502424 n/a deg/d
Q 2.1527231 n/a AU
  Orbit Determination Parameters
   # obs. used (total)      545  
   first obs. used      1988-??-??  
   last obs. used      2012-08-28  
   # oppositions      12  
   planetary ephem.      DE403  
   condition code      0  
   fit RMS      0.55  
   data source      MPC:mpn  
   producer      MPCLINUX  

Additional Information
 T_jup = 3.865 

Ephemeris | Orbit Diagram | Orbital Elements | Physical Parameters ]

Physical Parameter Table
Parameter Symbol Value Units Sigma Reference Notes
absolute magnitude H 15.2 mag n/a PDS3 (MPC 34754)  

Alternate Designations
 1988 DZ4 = 1996 EX 
Ephemeris | Orbit Diagram | Orbital Elements | Physical Parameters ]
ABOUT SSD CREDITS/AWARDS PRIVACY/COPYRIGHT GLOSSARY LINKS
FirstGov 2013-Jun-20 00:33 UT
(server date/time)  
NASA Home Page
Site Manager:   Donald K. Yeomans
Webmaster  Alan B. Chamberlin